Date String (YYYY-MM-DD hh:mm:ss) UTC,Instrument flags,absolute air pressure of the measurement (hPa),sample flow rate (lpm),inlet stack bypass flow (lpm),air temperature of the measurement (°C),ambient temperature measured by the external sensor (°C),aerosol sample conditioner tube jacket temperature (°C),OPC LED temperature (°C),internal box temperature (°C),relative humidity of the measurement (%),span deviation,mass concentration of particles derived from Lorenz-Mie calculation of OPC scattering (μg/m³),mass concentration of particles derived from Lorenz-Mie calculation of OPC scattering (μg/m³),mass concentration of particles derived from Lorenz-Mie calculation of OPC scattering (μg/m³)
DateTimeUTC,F1_M11,P_M11,Q1_M11,Q2_M11,T1_M11,T2_M11,T3_M11,T4_M11,T5_M11,U1_M11,ZSPAN_M11,X2_M11,X0_M11,X1_M11
2024-02-05 04:00:00,SystemResetWarning,0831.6,5.00,000.00,019.9,019.3,000.0,028.4,021.6,18.3,0000.0,0003.53,0004.82,0003.39
2024-02-05 04:01:00,SystemResetWarning,0831.6,5.00,000.00,019.9,019.2,000.0,028.4,021.6,18.3,0000.0,0003.52,0004.76,0003.37
2024-02-05 04:02:00,SystemResetWarning,0831.6,5.00,000.00,019.9,019.2,000.0,028.4,021.6,18.3,0000.0,0003.51,0004.74,0003.37
2024-02-05 04:03:00,SystemResetWarning,0831.6,4.99,000.00,019.9,019.2,000.0,028.4,021.6,18.3,0000.0,0003.50,0004.74,0003.36
2024-02-05 04:04:00,SystemResetWarning,0831.6,5.00,000.00,019.9,019.2,000.0,028.4,021.6,18.3,0000.0,0003.49,0004.69,0003.34
2024-02-05 04:05:00,SystemResetWarning,0831.6,4.99,000.00,019.9,019.2,000.0,028.3,021.6,18.3,0000.0,0003.48,0004.69,0003.33
2024-02-05 04:06:00,SystemResetWarning,0831.6,5.00,000.00,019.9,019.2,000.0,028.3,021.5,18.3,0000.0,0003.44,0004.53,0003.31
2024-02-05 04:07:00,SystemResetWarning,0831.6,5.01,000.00,019.8,019.1,000.0,028.3,021.5,18.4,0000.0,0003.42,0004.42,0003.30
2024-02-05 04:08:00,SystemResetWarning,0831.6,5.00,000.00,019.8,019.1,000.0,028.3,021.5,18.2,0000.0,0003.41,0004.38,0003.28
2024-02-05 04:09:00,SystemResetWarning,0831.6,5.00,000.00,019.8,019.1,000.0,028.3,021.5,18.2,0000.0,0003.41,0004.37,0003.28
2024-02-05 04:10:00,SystemResetWarning,0831.7,5.01,000.00,019.8,019.1,000.0,028.3,021.5,18.3,0000.0,0003.40,0004.36,0003.27
2024-02-05 04:11:00,SystemResetWarning,0831.7,5.00,000.00,019.8,019.1,000.0,028.2,021.5,18.1,0000.0,0003.40,0004.39,0003.26
2024-02-05 04:12:00,SystemResetWarning,0831.6,5.01,000.00,019.8,019.1,000.0,028.2,021.5,18.1,0000.0,0003.40,0004.39,0003.27
2024-02-05 04:13:00,SystemResetWarning,0831.7,4.99,000.00,019.7,019.0,000.0,028.2,021.4,18.2,0000.0,0003.39,0004.35,0003.26
2024-02-05 04:14:00,SystemResetWarning,0831.7,4.99,000.00,019.7,019.0,000.0,028.2,021.4,18.2,0000.0,0003.38,0004.39,0003.23
2024-02-05 04:15:00,SystemResetWarning,0831.7,4.99,000.00,019.7,019.0,000.0,028.2,021.4,18.1,0000.0,0003.38,0004.44,0003.23
2024-02-05 04:16:00,SystemResetWarning,0831.7,5.00,000.00,019.7,019.0,000.0,028.2,021.4,18.0,0000.0,0003.35,0004.36,0003.21
2024-02-05 04:17:00,SystemResetWarning,0831.7,5.00,000.00,019.7,019.0,000.0,028.2,021.4,18.0,0000.0,0003.34,0004.35,0003.21
2024-02-05 04:18:00,SystemResetWarning,0831.7,5.00,000.00,019.7,018.9,000.0,028.1,021.3,18.1,0000.0,0003.35,0004.95,0003.20
2024-02-05 04:19:00,SystemResetWarning,0831.6,5.00,000.00,019.6,018.9,000.0,028.1,021.3,18.1,0000.0,0003.34,0005.53,0003.20
2024-02-05 04:20:00,SystemResetWarning,0831.6,5.00,000.00,019.6,018.9,000.0,028.1,021.3,18.1,0000.0,0003.34,0005.47,0003.21
2024-02-05 04:21:00,SystemResetWarning,0831.6,5.00,000.00,019.6,018.9,000.0,028.1,021.3,18.0,0000.0,0003.35,0005.50,0003.22
2024-02-05 04:22:00,SystemResetWarning,0831.7,5.00,000.00,019.6,018.9,000.0,028.1,021.3,17.9,0000.0,0003.36,0005.52,0003.22
2024-02-05 04:23:00,SystemResetWarning,0831.6,5.00,000.00,019.6,018.9,000.0,028.1,021.3,17.9,0000.0,0003.33,0005.41,0003.20
2024-02-05 04:24:00,SystemResetWarning,0831.6,5.00,000.00,019.6,018.8,000.0,028.0,021.2,17.9,0000.0,0003.33,0005.46,0003.19
2024-02-05 04:25:00,SystemResetWarning,0831.7,5.00,000.00,019.6,018.8,000.0,028.0,021.2,17.9,0000.0,0003.32,0005.49,0003.19
2024-02-05 04:26:00,SystemResetWarning,0831.7,5.00,000.00,019.5,018.8,000.0,028.0,021.2,18.0,0000.0,0003.30,0005.39,0003.18
2024-02-05 04:27:00,SystemResetWarning,0831.6,5.00,000.00,019.5,018.8,000.0,028.0,021.2,18.0,0000.0,0003.31,0005.41,0003.17
2024-02-05 04:28:00,SystemResetWarning,0831.6,5.00,000.00,019.5,018.8,000.0,028.0,021.2,17.9,0000.0,0003.31,0005.40,0003.16
2024-02-05 04:29:00,SystemResetWarning,0831.7,5.00,000.00,019.5,018.8,000.0,028.0,021.2,18.0,0000.0,0003.30,0005.02,0003.15
2024-02-05 04:30:00,SystemResetWarning,0831.6,5.00,000.00,019.5,018.8,000.0,028.0,021.1,17.8,0000.0,0003.28,0004.13,0003.14
2024-02-05 04:31:00,SystemResetWarning,0831.6,5.00,000.00,019.5,018.8,000.0,028.0,021.2,17.8,0000.0,0003.25,0004.09,0003.11
2024-02-05 04:32:00,SystemResetWarning,0831.6,5.00,000.00,019.5,018.8,000.0,028.0,021.1,17.7,0000.0,0003.21,0004.17,0003.07
2024-02-05 04:33:00,SystemResetWarning,0831.6,5.00,000.00,019.5,018.8,000.0,027.9,021.1,17.7,0000.0,0003.17,0004.28,0003.03
2024-02-05 04:34:00,SystemResetWarning,0831.6,5.00,000.00,019.4,018.7,000.0,027.9,021.1,17.8,0000.0,0003.17,0004.32,0003.00
2024-02-05 04:35:00,SystemResetWarning,0831.6,5.00,000.00,019.4,018.7,000.0,027.9,021.1,17.8,0000.0,0003.15,0004.27,0002.97
2024-02-05 04:36:00,SystemResetWarning,0831.6,5.00,000.00,019.4,018.7,000.0,027.9,021.1,17.8,0000.0,0003.12,0004.09,0002.94
2024-02-05 04:37:00,SystemResetWarning,0831.6,5.01,000.00,019.4,018.7,000.0,027.9,021.1,17.9,0000.0,0003.12,0004.05,0002.94
2024-02-05 04:38:00,SystemResetWarning,0831.6,5.00,000.00,019.4,018.7,000.0,027.8,021.1,17.9,0000.0,0003.11,0004.03,0002.94
2024-02-05 04:39:00,SystemResetWarning,0831.6,5.00,000.00,019.4,018.7,000.0,027.8,021.0,17.8,0000.0,0003.10,0004.00,0002.95
2024-02-05 04:40:00,SystemResetWarning,0831.6,5.00,000.00,019.4,018.7,000.0,027.8,021.0,17.7,0000.0,0003.10,0003.97,0002.94
2024-02-05 04:41:00,SystemResetWarning,0831.6,5.00,000.00,019.4,018.7,000.0,027.8,021.0,17.7,0000.0,0003.10,0003.96,0002.94
2024-02-05 04:42:00,SystemResetWarning,0831.6,5.00,000.00,019.3,018.7,000.0,027.8,021.0,17.7,0000.0,0003.09,0003.91,0002.93
2024-02-05 04:43:00,SystemResetWarning,0831.8,4.99,000.00,019.3,018.6,000.0,027.8,021.0,17.8,0000.0,0003.11,0003.87,0002.94
2024-02-05 04:44:00,SystemResetWarning,0831.6,4.99,000.00,019.3,018.6,000.0,027.8,021.0,17.8,0000.0,0003.10,0003.55,0002.93
2024-02-05 04:45:00,SystemResetWarning,0831.6,5.00,000.00,019.3,018.6,000.0,027.8,021.0,17.8,0000.0,0003.11,0003.61,0002.92
2024-02-05 04:46:00,SystemResetWarning,0831.6,5.00,000.00,019.3,018.6,000.0,027.7,021.0,17.8,0000.0,0003.10,0003.52,0002.92
2024-02-05 04:47:00,SystemResetWarning,0831.6,5.01,000.00,019.3,018.6,000.0,027.7,020.9,17.8,0000.0,0003.11,0003.60,0002.92
2024-02-05 04:48:00,SystemResetWarning,0831.6,5.01,000.00,019.3,018.5,000.0,027.7,020.9,17.8,0000.0,0003.11,0003.65,0002.91
2024-02-05 04:49:00,SystemResetWarning,0831.6,5.00,000.00,019.2,018.5,000.0,027.7,020.9,17.8,0000.0,0003.10,0003.72,0002.89
2024-02-05 04:50:00,SystemResetWarning,0831.6,4.99,000.00,019.2,018.5,000.0,027.7,020.9,17.8,0000.0,0003.08,0003.71,0002.87
2024-02-05 04:51:00,SystemResetWarning,0831.6,4.99,000.00,019.2,018.5,000.0,027.7,020.9,17.7,0000.0,0003.05,0003.66,0002.85
2024-02-05 04:52:00,SystemResetWarning,0831.6,5.01,000.00,019.2,018.5,000.0,027.7,020.9,17.8,0000.0,0003.04,0003.66,0002.85
2024-02-05 04:53:00,SystemResetWarning,0831.6,5.00,000.00,019.2,018.5,000.0,027.6,020.8,17.8,0000.0,0003.02,0003.65,0002.83
2024-02-05 04:54:00,SystemResetWarning,0831.6,5.00,000.00,019.2,018.5,000.0,027.6,020.8,17.8,0000.0,0003.01,0003.64,0002.83
2024-02-05 04:55:00,SystemResetWarning,0831.6,4.99,000.00,019.2,018.4,000.0,027.6,020.8,17.7,0000.0,0003.04,0003.69,0002.84
2024-02-05 04:56:00,SystemResetWarning,0831.6,4.99,000.00,019.1,018.4,000.0,027.6,020.8,17.7,0000.0,0003.03,0003.80,0002.86
2024-02-05 04:57:00,SystemResetWarning,0831.6,4.99,000.00,019.1,018.4,000.0,027.6,020.8,17.7,0000.0,0003.04,0003.89,0002.86
2024-02-05 04:58:00,SystemResetWarning,0831.5,5.00,000.00,019.1,018.4,000.0,027.6,020.8,17.7,0000.0,0003.07,0003.92,0002.87
2024-02-05 04:59:00,SystemResetWarning,0831.5,5.01,000.00,019.1,018.4,000.0,027.5,020.7,17.7,0000.0,0003.07,0003.89,0002.87
